Location: ?????
(33.6267°N, 35.4675°E)
Time: 04:39:37
(UTC+00:00)

NOSS 2-3 (E) - Pass Details

Date: 12 November 2019
Orbit: 595 x 1616 km, 63.4° (Epoch: 03 December)

Event Time Altitude Azimuth Distance (km) Brightness Sun altitude
Rises 16:35:45 0° 219° (SW) 2,822 7.6 -24.8°
Reaches altitude 10° 16:37:57 10° 223° (SW) 1,924 6.7 -25.2°
Maximum altitude 16:42:07 58° 303° (WNW) 728 4.0 -26.1°
Enters shadow 16:42:27 56° 325° (NW) 748 4.0 -26.1°
